Falls City, NE

2:24 AM CST on February 25, 2017 (GMT -0600)
Brenner

Weather History for KFNB - September, 2014

Change the Weather History Date:

Thursday, September 4, 2014

  Actual Average Record
Temperature  
Mean Temperature 86 °F -  
Max Temperature 96 °F 83 °F 98 °F (1954)
Min Temperature 77 °F 59 °F 41 °F (1974)
Cooling Degree Days 22    
Growing Degree Days 36 (Base 50)    
Moisture  
Dew Point 70 °F    
Average Humidity 63    
Maximum Humidity 88    
Minimum Humidity 40    
Precipitation  
Precipitation 0.00 in - - ()
Sea Level Pressure  
Sea Level Pressure 29.78 in    
Wind  
Wind Speed 11 mph (South)    
Max Wind Speed 21 mph    
Max Gust Speed 32 mph    
Visibility 10 miles    
Events Rain    
Averages and records for this station are not official NWS values.
T = Trace of Precipitation, MM = Missing Value Source: NWS Daily Summary

Daily Weather History Graph

Daily Weather History Graph

Search for Another Location

Airport or City:

Trip Planner

Search our weather history database for the weather conditions in past years. The results will help you decide how hot, cold, wet, or windy it might be!

Date:

Astronomy

Sep. 04, 2014 Rise Set
Actual Time 6:52 AM CDT 7:49 PM CDT
Civil Twilight 6:25 AM CDT 8:16 PM CDT
Nautical Twilight 5:52 AM CDT 8:49 PM CDT
Astronomical Twilight 5:18 AM CDT 9:23 PM CDT
Moon 4:27 PM CDT (9/4) 1:44 AM CDT (9/4)
Length of Visible Light 13h 51m
Length of Day
12h 56m
Waxing Gibbous, 74% of the Moon is Illuminated
Sep 4
Waxing Gibbous
Sep 8
Full
Sep 15
Last Quarter
Sep 24
New
Oct 1
First Quarter

Hourly Weather History & Observations

Time (CDT) Temp. Heat Index Dew Point Humidity Pressure Visibility Wind Dir Wind Speed Gust Speed Precip Events Conditions
12:53 AM 78.1 °F - 73.0 °F 84% 29.75 in 10.0 mi SSE 6.9 mph - N/A   Clear
1:53 AM 77.0 °F - 73.0 °F 88% 29.74 in 10.0 mi SSE 8.1 mph - N/A   Clear
2:53 AM 78.1 °F - 72.0 °F 81% 29.75 in 10.0 mi South 6.9 mph - N/A   Clear
3:53 AM 78.1 °F - 71.1 °F 79% 29.75 in 10.0 mi South 9.2 mph - N/A   Clear
4:53 AM 78.1 °F - 70.0 °F 76% 29.74 in 10.0 mi South 11.5 mph - N/A   Clear
5:53 AM 77.0 °F - 69.1 °F 76% 29.74 in 10.0 mi South 11.5 mph - N/A   Clear
6:53 AM 77.0 °F - 68.0 °F 74% 29.75 in 10.0 mi South 10.4 mph - N/A   Clear
7:53 AM 77.0 °F - 68.0 °F 74% 29.76 in 10.0 mi South 13.8 mph 23.0 mph N/A   Clear
8:53 AM 81.0 °F 84.1 °F 69.1 °F 67% 29.77 in 10.0 mi South 18.4 mph 25.3 mph 0.00 in Rain Light Rain
9:53 AM 84.0 °F 87.8 °F 69.1 °F 61% 29.78 in 10.0 mi South 17.3 mph 26.5 mph 0.00 in Rain Light Rain
10:53 AM 87.1 °F 92.0 °F 70.0 °F 57% 29.78 in 10.0 mi SSW 19.6 mph 32.2 mph 0.00 in Rain Light Rain
11:53 AM 91.0 °F 97.6 °F 71.1 °F 52% 29.78 in 10.0 mi SSW 19.6 mph 28.8 mph 0.00 in Rain Light Rain
12:53 PM 93.0 °F 100.1 °F 71.1 °F 49% 29.78 in 10.0 mi South 13.8 mph 25.3 mph 0.00 in Rain Light Rain
1:53 PM 95.0 °F 101.3 °F 70.0 °F 44% 29.78 in 10.0 mi SSW 17.3 mph 29.9 mph 0.00 in Rain Light Rain
2:53 PM 95.0 °F 100.7 °F 69.1 °F 43% 29.77 in 10.0 mi SSW 20.7 mph 32.2 mph 0.00 in Rain Light Rain
3:53 PM 96.1 °F 101.0 °F 68.0 °F 40% 29.76 in 10.0 mi South 18.4 mph 31.1 mph 0.00 in Rain Light Rain
4:53 PM 95.0 °F 99.5 °F 68.0 °F 41% 29.76 in 10.0 mi SSW 17.3 mph 27.6 mph 0.00 in Rain Light Rain
5:53 PM 93.9 °F 100.3 °F 70.0 °F 46% 29.78 in 10.0 mi South 11.5 mph 18.4 mph 0.00 in Rain Light Rain
6:53 PM 91.0 °F 97.6 °F 71.1 °F 52% 29.79 in 10.0 mi South 8.1 mph - 0.00 in Rain Light Rain
7:53 PM 86.0 °F 90.7 °F 70.0 °F 59% 29.81 in 10.0 mi South 8.1 mph - 0.00 in Rain Light Rain
8:53 PM 82.0 °F 85.9 °F 70.0 °F 67% 29.83 in 10.0 mi South 6.9 mph - 0.00 in Rain Light Rain
9:53 PM 80.1 °F 82.9 °F 69.1 °F 69% 29.85 in 10.0 mi SSE 5.8 mph - 0.00 in Rain Light Rain
10:53 PM 78.1 °F - 69.1 °F 74% 29.88 in 10.0 mi NW 10.4 mph - 0.00 in Rain Light Rain
11:53 PM 81.0 °F 83.8 °F 68.0 °F 65% 29.89 in 10.0 mi WSW 5.8 mph - 0.00 in Rain Light Rain